Time,TemperatureF,DewpointF,PressureIn,WindDirection,WindDirectionDegrees,WindSpeedMPH,WindSpeedGustMPH,Humidity,HourlyPrecipIn,Conditions,Clouds,dailyrainin,SoftwareType,DateUTC
2013-05-02 00:02:00,75.9,41.3,28.75,East,90,0.0,0.0,29,0.00,,,0.00,open2300-1.11,2013-05-01 21:02:00,
2013-05-02 00:12:00,75.7,42.2,28.75,NE,45,2.2,2.2,30,0.00,,,0.00,open2300-1.11,2013-05-01 21:12:00,
2013-05-02 00:18:00,75.6,42.8,28.75,NE,45,0.0,2.2,31,0.00,,,0.00,open2300-1.11,2013-05-01 21:18:00,
2013-05-02 00:27:00,75.6,43.6,28.75,NNE,22,0.0,0.0,32,0.00,,,0.00,open2300-1.11,2013-05-01 21:27:00,
2013-05-02 00:32:00,75.6,43.6,28.75,NNE,22,0.0,0.0,32,0.00,,,0.00,open2300-1.11,2013-05-01 21:32:00,
2013-05-02 00:37:00,75.4,44.2,28.75,NNE,22,0.0,0.0,33,0.00,,,0.00,open2300-1.11,2013-05-01 21:37:00,
2013-05-02 00:42:00,75.4,44.2,28.75,NNE,22,0.0,5.4,33,0.00,,,0.00,open2300-1.11,2013-05-01 21:42:00,
2013-05-02 00:47:00,75.4,44.2,28.75,SSW,202,0.0,0.0,33,0.00,,,0.00,open2300-1.11,2013-05-01 21:47:00,
2013-05-02 00:52:00,75.4,44.2,28.75,NNE,22,0.0,2.5,33,0.00,,,0.00,open2300-1.11,2013-05-01 21:52:00,
2013-05-02 01:02:00,75.2,44.0,28.75,NNE,22,0.0,0.7,33,0.00,,,0.00,open2300-1.11,2013-05-01 22:02:00,
2013-05-02 01:12:00,75.0,44.6,28.75,ESE,112,0.0,0.0,34,0.00,,,0.00,open2300-1.11,2013-05-01 22:12:00,
2013-05-02 01:22:00,75.0,44.6,28.75,NE,45,0.0,1.8,34,0.00,,,0.00,open2300-1.11,2013-05-01 22:22:00,
2013-05-02 01:27:00,75.0,44.6,28.74,NE,45,0.0,0.0,34,0.00,,,0.00,open2300-1.11,2013-05-01 22:27:00,
2013-05-02 01:33:00,75.0,44.6,28.75,NE,45,0.0,0.0,34,0.00,,,0.00,open2300-1.11,2013-05-01 22:33:00,
2013-05-02 01:42:00,74.8,45.9,28.74,NNE,22,0.9,0.9,36,0.00,,,0.00,open2300-1.11,2013-05-01 22:42:00,
2013-05-02 01:47:00,74.8,45.9,28.74,NNE,22,0.0,0.9,36,0.00,,,0.00,open2300-1.11,2013-05-01 22:47:00,
2013-05-02 01:52:00,74.8,45.9,28.74,NNE,22,0.0,0.0,36,0.00,,,0.00,open2300-1.11,2013-05-01 22:52:00,
2013-05-02 02:02:00,74.8,45.9,28.74,NE,45,0.0,1.8,36,0.00,,,0.00,open2300-1.11,2013-05-01 23:02:00,
2013-05-02 02:12:00,74.8,45.9,28.74,North,0,0.0,4.0,36,0.00,,,0.00,open2300-1.11,2013-05-01 23:12:00,
2013-05-02 02:22:00,74.8,45.9,28.73,NNE,22,3.4,3.4,36,0.00,,,0.00,open2300-1.11,2013-05-01 23:22:00,
2013-05-02 02:27:00,74.8,45.9,28.73,NE,45,0.0,3.4,36,0.00,,,0.00,open2300-1.11,2013-05-01 23:27:00,
2013-05-02 02:37:00,74.8,45.9,28.73,NNE,22,0.0,2.9,36,0.00,,,0.00,open2300-1.11,2013-05-01 23:37:00,
2013-05-02 02:42:00,74.8,45.9,28.73,NNE,22,0.0,0.0,36,0.00,,,0.00,open2300-1.11,2013-05-01 23:42:00,
2013-05-02 02:47:00,74.7,45.8,28.73,NNE,22,0.0,0.0,36,0.00,,,0.00,open2300-1.11,2013-05-01 23:47:00,
2013-05-02 02:57:00,74.5,45.6,28.73,NNE,22,0.0,0.0,36,0.00,,,0.00,open2300-1.11,2013-05-01 23:57:00,
2013-05-02 03:02:00,74.5,45.6,28.72,NNE,22,0.0,0.0,36,0.00,,,0.00,open2300-1.11,2013-05-02 00:02:00,
2013-05-02 03:07:00,74.5,44.8,28.72,NNE,22,0.0,0.0,35,0.00,,,0.00,open2300-1.11,2013-05-02 00:07:00,
2013-05-02 03:17:00,74.1,44.5,28.72,NNE,22,0.0,0.0,35,0.00,,,0.00,open2300-1.11,2013-05-02 00:17:00,
2013-05-02 03:28:00,73.9,44.4,28.72,NNE,22,0.0,0.0,35,0.00,,,0.00,open2300-1.11,2013-05-02 00:28:00,
2013-05-02 03:37:00,73.9,45.1,28.72,NNE,22,0.0,0.0,36,0.00,,,0.00,open2300-1.11,2013-05-02 00:37:00,
2013-05-02 03:42:00,73.9,45.1,28.72,NNE,22,0.0,0.0,36,0.00,,,0.00,open2300-1.11,2013-05-02 00:42:00,
2013-05-02 03:47:00,73.9,45.1,28.72,NNE,22,0.0,0.0,36,0.00,,,0.00,open2300-1.11,2013-05-02 00:47:00,
2013-05-02 03:57:00,73.8,45.7,28.72,North,0,0.0,0.0,37,0.00,,,0.00,open2300-1.11,2013-05-02 00:57:00,
2013-05-02 04:02:00,73.8,45.7,28.72,North,0,0.0,0.0,37,0.00,,,0.00,open2300-1.11,2013-05-02 01:02:00,
2013-05-02 04:12:00,73.8,45.7,28.72,North,0,0.0,0.0,37,0.00,,,0.00,open2300-1.11,2013-05-02 01:12:00,
2013-05-02 04:17:00,73.8,45.7,28.72,North,0,0.0,0.0,37,0.00,,,0.00,open2300-1.11,2013-05-02 01:17:00,
2013-05-02 04:22:00,73.6,46.3,28.72,North,0,0.0,0.0,38,0.00,,,0.00,open2300-1.11,2013-05-02 01:22:00,
2013-05-02 04:32:00,73.6,46.3,28.72,SW,225,0.0,0.0,38,0.00,,,0.00,open2300-1.11,2013-05-02 01:32:00,
2013-05-02 04:37:00,73.6,46.3,28.71,SW,225,0.0,0.0,38,0.00,,,0.00,open2300-1.11,2013-05-02 01:37:00,
2013-05-02 04:42:00,73.6,46.3,28.71,NE,45,0.0,0.0,38,0.00,,,0.00,open2300-1.11,2013-05-02 01:42:00,
2013-05-02 04:52:00,73.4,46.2,28.71,NNE,22,0.0,0.0,38,0.00,,,0.00,open2300-1.11,2013-05-02 01:52:00,
2013-05-02 04:57:00,73.2,46.0,28.71,NNE,22,0.0,0.0,38,0.00,,,0.00,open2300-1.11,2013-05-02 01:57:00,
2013-05-02 05:07:00,73.2,46.0,28.71,NNE,22,0.0,0.0,38,0.00,,,0.00,open2300-1.11,2013-05-02 02:07:00,
2013-05-02 05:18:00,73.0,45.8,28.71,NNE,22,0.0,0.0,38,0.00,,,0.00,open2300-1.11,2013-05-02 02:18:00,
2013-05-02 05:27:00,72.9,45.7,28.70,WSW,247,0.0,0.0,38,0.00,,,0.00,open2300-1.11,2013-05-02 02:27:00,
2013-05-02 05:32:00,72.7,45.5,28.71,WSW,247,0.0,0.0,38,0.00,,,0.00,open2300-1.11,2013-05-02 02:32:00,
2013-05-02 05:37:00,72.7,45.5,28.70,WSW,247,0.0,0.0,38,0.00,,,0.00,open2300-1.11,2013-05-02 02:37:00,
2013-05-02 05:42:00,72.5,45.4,28.71,WSW,247,0.0,0.0,38,0.00,,,0.00,open2300-1.11,2013-05-02 02:42:00,
2013-05-02 05:47:00,72.5,45.4,28.71,WSW,247,0.0,0.0,38,0.00,,,0.00,open2300-1.11,2013-05-02 02:47:00,
2013-05-02 05:53:00,72.3,45.2,28.71,WSW,247,0.0,0.0,38,0.00,,,0.00,open2300-1.11,2013-05-02 02:53:00,
2013-05-02 06:02:00,72.3,45.2,28.71,WSW,247,0.0,0.0,38,0.00,,,0.00,open2300-1.11,2013-05-02 03:02:00,
2013-05-02 06:07:00,72.1,45.8,28.71,WSW,247,0.0,0.0,39,0.00,,,0.00,open2300-1.11,2013-05-02 03:07:00,
2013-05-02 06:17:00,71.8,45.5,28.72,WSW,247,0.0,0.0,39,0.00,,,0.00,open2300-1.11,2013-05-02 03:17:00,
2013-05-02 06:22:00,71.8,45.5,28.72,WSW,247,0.0,0.0,39,0.00,,,0.00,open2300-1.11,2013-05-02 03:22:00,
2013-05-02 06:28:00,72.0,45.6,28.72,WSW,247,0.0,0.0,39,0.00,,,0.00,open2300-1.11,2013-05-02 03:28:00,
2013-05-02 06:37:00,71.8,45.5,28.72,WSW,247,0.0,0.0,39,0.00,,,0.00,open2300-1.11,2013-05-02 03:37:00,
2013-05-02 06:42:00,71.8,45.5,28.72,SW,225,0.0,0.0,39,0.00,,,0.00,open2300-1.11,2013-05-02 03:42:00,
2013-05-02 06:47:00,71.8,45.5,28.72,SW,225,0.0,0.0,39,0.00,,,0.00,open2300-1.11,2013-05-02 03:47:00,
2013-05-02 06:52:00,71.8,45.5,28.72,SW,225,0.0,0.0,39,0.00,,,0.00,open2300-1.11,2013-05-02 03:52:00,
2013-05-02 06:57:00,71.8,45.5,28.72,SW,225,0.0,0.0,39,0.00,,,0.00,open2300-1.11,2013-05-02 03:57:00,
2013-05-02 07:03:00,71.8,46.2,28.72,SW,225,0.0,0.0,40,0.00,,,0.00,open2300-1.11,2013-05-02 04:03:00,
2013-05-02 07:12:00,71.8,46.2,28.72,SW,225,0.0,0.0,40,0.00,,,0.00,open2300-1.11,2013-05-02 04:12:00,
2013-05-02 07:17:00,71.8,46.2,28.72,SW,225,0.0,0.0,40,0.00,,,0.00,open2300-1.11,2013-05-02 04:17:00,
2013-05-02 07:22:00,71.8,46.2,28.72,SW,225,0.0,0.0,40,0.00,,,0.00,open2300-1.11,2013-05-02 04:22:00,
2013-05-02 07:32:00,71.6,46.6,28.73,SW,225,0.0,0.0,41,0.00,,,0.00,open2300-1.11,2013-05-02 04:32:00,
2013-05-02 07:39:00,71.8,46.8,28.72,SW,225,0.0,0.0,41,0.00,,,0.00,open2300-1.11,2013-05-02 04:39:00,
2013-05-02 07:47:00,71.8,46.8,28.73,SW,225,0.0,0.0,41,0.00,,,0.00,open2300-1.11,2013-05-02 04:47:00,
2013-05-02 07:57:00,71.8,46.8,28.73,SW,225,0.0,0.0,41,0.00,,,0.00,open2300-1.11,2013-05-02 04:57:00,
2013-05-02 08:07:00,72.1,47.1,28.73,SW,225,0.0,0.0,41,0.00,,,0.00,open2300-1.11,2013-05-02 05:07:00,
2013-05-02 08:13:00,72.3,47.9,28.74,SW,225,0.0,0.0,42,0.00,,,0.00,open2300-1.11,2013-05-02 05:13:00,
2013-05-02 08:22:00,72.3,47.9,28.74,SW,225,0.0,0.0,42,0.00,,,0.00,open2300-1.11,2013-05-02 05:22:00,
2013-05-02 08:27:00,72.5,48.0,28.73,SSE,157,0.0,0.0,42,0.00,,,0.00,open2300-1.11,2013-05-02 05:27:00,
2013-05-02 08:32:00,72.7,48.2,28.74,SSW,202,0.0,0.0,42,0.00,,,0.00,open2300-1.11,2013-05-02 05:32:00,
2013-05-02 08:37:00,72.7,48.2,28.73,NE,45,0.0,0.0,42,0.00,,,0.00,open2300-1.11,2013-05-02 05:37:00,
2013-05-02 08:42:00,73.0,48.5,28.73,NNE,22,0.0,0.0,42,0.00,,,0.00,open2300-1.11,2013-05-02 05:42:00,
2013-05-02 08:47:00,73.2,48.7,28.72,NNE,22,5.6,5.6,42,0.00,,,0.00,open2300-1.11,2013-05-02 05:47:00,
2013-05-02 08:57:00,73.6,48.4,28.73,NNE,22,0.0,0.0,41,0.00,,,0.00,open2300-1.11,2013-05-02 05:57:00,
2013-05-02 09:02:00,73.9,48.7,28.73,NE,45,0.0,0.0,41,0.00,,,0.00,open2300-1.11,2013-05-02 06:02:00,
2013-05-02 09:12:00,74.3,48.5,28.72,NE,45,0.0,0.0,40,0.00,,,0.00,open2300-1.11,2013-05-02 06:12:00,
2013-05-02 09:22:00,74.8,48.2,28.72,NNE,22,0.0,0.0,39,0.00,,,0.00,open2300-1.11,2013-05-02 06:22:00,
2013-05-02 09:27:00,74.8,47.4,28.72,SW,225,0.0,0.0,38,0.00,,,0.00,open2300-1.11,2013-05-02 06:27:00,
2013-05-02 09:32:00,75.0,47.6,28.72,SW,225,0.0,0.0,38,0.00,,,0.00,open2300-1.11,2013-05-02 06:32:00,
2013-05-02 09:42:00,75.2,47.0,28.72,NNW,337,0.0,0.0,37,0.00,,,0.00,open2300-1.11,2013-05-02 06:42:00,
2013-05-02 09:47:00,75.4,46.4,28.72,NNE,22,0.0,0.0,36,0.00,,,0.00,open2300-1.11,2013-05-02 06:47:00,
2013-05-02 09:52:00,75.4,45.7,28.73,North,0,0.0,0.0,35,0.00,,,0.00,open2300-1.11,2013-05-02 06:52:00,
2013-05-02 09:57:00,75.6,45.8,28.72,NE,45,0.0,0.0,35,0.00,,,0.00,open2300-1.11,2013-05-02 06:57:00,
2013-05-02 10:02:00,75.7,45.2,28.72,NNE,22,8.3,8.3,34,0.00,,,0.00,open2300-1.11,2013-05-02 07:02:00,
2013-05-02 10:07:00,75.9,45.4,28.72,NE,45,0.0,8.3,34,0.00,,,0.00,open2300-1.11,2013-05-02 07:07:00,
2013-05-02 10:17:00,76.5,45.1,28.72,North,0,5.6,5.6,33,0.00,,,0.00,open2300-1.11,2013-05-02 07:17:00,
2013-05-02 10:23:00,76.8,44.7,28.72,NE,45,0.0,5.6,32,0.00,,,0.00,open2300-1.11,2013-05-02 07:23:00,
2013-05-02 10:32:00,77.2,44.2,28.72,NNE,22,2.7,7.4,31,0.00,,,0.00,open2300-1.11,2013-05-02 07:32:00,
2013-05-02 10:37:00,77.5,44.5,28.71,NE,45,4.9,4.9,31,0.00,,,0.00,open2300-1.11,2013-05-02 07:37:00,
2013-05-02 10:47:00,77.9,44.8,28.72,NNE,22,3.1,3.1,31,0.00,,,0.00,open2300-1.11,2013-05-02 07:47:00,
2013-05-02 10:52:00,78.1,44.2,28.72,NNE,22,0.0,7.2,30,0.00,,,0.00,open2300-1.11,2013-05-02 07:52:00,
2013-05-02 11:02:00,78.4,43.5,28.72,NE,45,2.0,8.3,29,0.00,,,0.00,open2300-1.11,2013-05-02 08:02:00,
2013-05-02 11:07:00,78.4,43.5,28.72,NNE,22,5.6,5.6,29,0.00,,,0.00,open2300-1.11,2013-05-02 08:07:00,
2013-05-02 11:17:00,78.6,43.6,28.72,NNE,22,5.6,6.0,29,0.00,,,0.00,open2300-1.11,2013-05-02 08:17:00,
2013-05-02 11:22:00,78.6,43.6,28.71,NNW,337,0.0,5.6,29,0.00,,,0.00,open2300-1.11,2013-05-02 08:22:00,
2013-05-02 11:32:00,78.6,43.6,28.72,NE,45,2.9,4.0,29,0.00,,,0.00,open2300-1.11,2013-05-02 08:32:00,
2013-05-02 11:37:00,78.8,43.7,28.72,NNE,22,3.8,3.8,29,0.00,,,0.00,open2300-1.11,2013-05-02 08:37:00,
2013-05-02 11:47:00,79.0,43.9,28.72,NNE,22,5.1,5.1,29,0.00,,,0.00,open2300-1.11,2013-05-02 08:47:00,
2013-05-02 11:52:00,79.2,44.1,28.71,NNE,22,4.5,6.9,29,0.00,,,0.00,open2300-1.11,2013-05-02 08:52:00,
2013-05-02 12:02:00,79.3,44.2,28.72,NNE,22,2.7,5.4,29,0.00,,,0.00,open2300-1.11,2013-05-02 09:02:00,
2013-05-02 12:07:00,79.5,45.4,28.72,North,0,7.2,7.2,30,0.00,,,0.00,open2300-1.11,2013-05-02 09:07:00,
2013-05-02 12:17:00,79.7,45.6,28.72,NNE,22,0.0,6.5,30,0.00,,,0.00,open2300-1.11,2013-05-02 09:17:00,
2013-05-02 12:22:00,79.9,45.8,28.72,NE,45,0.0,0.9,30,0.00,,,0.00,open2300-1.11,2013-05-02 09:22:00,
2013-05-02 12:32:00,80.2,46.8,28.72,NE,45,1.8,1.8,31,0.00,,,0.00,open2300-1.11,2013-05-02 09:32:00,
2013-05-02 12:37:00,80.2,46.8,28.72,NE,45,0.0,4.0,31,0.00,,,0.00,open2300-1.11,2013-05-02 09:37:00,
2013-05-02 12:47:00,80.4,47.0,28.72,NE,45,0.0,0.9,31,0.00,,,0.00,open2300-1.11,2013-05-02 09:47:00,
2013-05-02 12:52:00,80.4,47.0,28.72,NNE,22,4.7,4.7,31,0.00,,,0.00,open2300-1.11,2013-05-02 09:52:00,
2013-05-02 12:57:00,80.4,47.8,28.73,NNW,337,0.0,4.7,32,0.00,,,0.00,open2300-1.11,2013-05-02 09:57:00,
2013-05-02 13:02:00,80.4,47.8,28.73,NNE,22,0.0,0.0,32,0.00,,,0.00,open2300-1.11,2013-05-02 10:02:00,
2013-05-02 13:07:00,80.8,48.1,28.73,NNE,22,0.0,5.1,32,0.00,,,0.00,open2300-1.11,2013-05-02 10:07:00,
2013-05-02 13:17:00,81.0,48.2,28.73,North,0,2.5,4.5,32,0.00,,,0.00,open2300-1.11,2013-05-02 10:17:00,
2013-05-02 13:22:00,81.1,48.4,28.73,NNE,22,0.0,2.5,32,0.00,,,0.00,open2300-1.11,2013-05-02 10:22:00,
2013-05-02 13:32:00,81.3,48.5,28.73,NNE,22,0.0,3.1,32,0.00,,,0.00,open2300-1.11,2013-05-02 10:32:00,
2013-05-02 13:37:00,82.2,48.5,28.73,NE,45,0.0,2.5,31,0.00,,,0.00,open2300-1.11,2013-05-02 10:37:00,
2013-05-02 13:47:00,82.8,48.2,28.73,NE,45,0.0,4.0,30,0.00,,,0.00,open2300-1.11,2013-05-02 10:47:00,
2013-05-02 13:52:00,83.1,47.4,28.73,NNE,22,0.0,0.0,29,0.00,,,0.00,open2300-1.11,2013-05-02 10:52:00,
2013-05-02 13:57:00,83.3,47.6,28.73,North,0,7.6,7.6,29,0.00,,,0.00,open2300-1.11,2013-05-02 10:57:00,
2013-05-02 14:02:00,83.5,46.7,28.73,NNW,337,5.6,7.6,28,0.00,,,0.00,open2300-1.11,2013-05-02 11:02:00,
2013-05-02 14:07:00,83.8,47.0,28.73,ENE,67,18.8,18.8,28,0.00,,,0.00,open2300-1.11,2013-05-02 11:07:00,
2013-05-02 14:17:00,84.4,46.4,28.73,NNE,22,6.0,14.5,27,0.00,,,0.00,open2300-1.11,2013-05-02 11:17:00,
2013-05-02 14:23:00,84.4,46.4,28.73,NNE,22,6.5,10.7,27,0.00,,,0.00,open2300-1.11,2013-05-02 11:23:00,
2013-05-02 14:32:00,84.6,46.6,28.72,NE,45,0.0,2.9,27,0.00,,,0.00,open2300-1.11,2013-05-02 11:32:00,
2013-05-02 14:37:00,84.7,46.7,28.73,NNE,22,4.2,4.2,27,0.00,,,0.00,open2300-1.11,2013-05-02 11:37:00,
2013-05-02 14:47:00,84.7,46.7,28.73,NE,45,1.3,2.5,27,0.00,,,0.00,open2300-1.11,2013-05-02 11:47:00,
2013-05-02 14:52:00,84.6,45.5,28.72,NE,45,3.4,5.6,26,0.00,,,0.00,open2300-1.11,2013-05-02 11:52:00,
2013-05-02 14:57:00,84.4,45.4,28.72,NNE,22,2.7,14.5,26,0.00,,,0.00,open2300-1.11,2013-05-02 11:57:00,
2013-05-02 15:02:00,84.2,46.3,28.72,NE,45,6.3,6.3,27,0.00,,,0.00,open2300-1.11,2013-05-02 12:02:00,
2013-05-02 15:07:00,84.2,45.2,28.72,NE,45,0.0,6.3,26,0.00,,,0.00,open2300-1.11,2013-05-02 12:07:00,
2013-05-02 15:12:00,84.2,45.2,28.72,NE,45,0.0,7.2,26,0.00,,,0.00,open2300-1.11,2013-05-02 12:12:00,
2013-05-02 15:22:00,84.4,46.4,28.72,NNE,22,0.0,2.5,27,0.00,,,0.00,open2300-1.11,2013-05-02 12:22:00,
2013-05-02 15:27:00,84.4,46.4,28.72,NNE,22,0.0,0.0,27,0.00,,,0.00,open2300-1.11,2013-05-02 12:27:00,
2013-05-02 15:34:00,84.4,45.4,28.72,NE,45,0.0,1.8,26,0.00,,,0.00,open2300-1.11,2013-05-02 12:34:00,
2013-05-02 15:42:00,84.7,46.7,28.72,NNE,22,0.0,3.6,27,0.00,,,0.00,open2300-1.11,2013-05-02 12:42:00,
2013-05-02 15:47:00,84.9,45.8,28.72,NE,45,1.3,1.3,26,0.00,,,0.00,open2300-1.11,2013-05-02 12:47:00,
2013-05-02 15:52:00,85.3,46.1,28.72,NE,45,0.0,1.3,26,0.00,,,0.00,open2300-1.11,2013-05-02 12:52:00,
2013-05-02 16:02:00,85.6,46.4,28.72,NE,45,1.6,2.5,26,0.00,,,0.00,open2300-1.11,2013-05-02 13:02:00,
2013-05-02 16:07:00,85.6,46.4,28.72,North,0,7.6,7.6,26,0.00,,,0.00,open2300-1.11,2013-05-02 13:07:00,
2013-05-02 16:12:00,85.8,46.6,28.72,NNE,22,0.0,7.6,26,0.00,,,0.00,open2300-1.11,2013-05-02 13:12:00,
2013-05-02 16:22:00,86.2,46.9,28.72,NNE,22,2.7,6.3,26,0.00,,,0.00,open2300-1.11,2013-05-02 13:22:00,
2013-05-02 16:27:00,86.2,45.8,28.72,NNE,22,1.1,4.7,25,0.00,,,0.00,open2300-1.11,2013-05-02 13:27:00,
2013-05-02 16:32:00,86.2,45.8,28.72,North,0,3.8,6.5,25,0.00,,,0.00,open2300-1.11,2013-05-02 13:32:00,
2013-05-02 16:42:00,86.4,46.0,28.72,NE,45,0.0,3.6,25,0.00,,,0.00,open2300-1.11,2013-05-02 13:42:00,
2013-05-02 16:47:00,86.5,45.0,28.72,NNE,22,6.3,6.3,24,0.00,,,0.00,open2300-1.11,2013-05-02 13:47:00,
2013-05-02 16:53:00,86.5,46.1,28.72,NNE,22,1.3,6.3,25,0.00,,,0.00,open2300-1.11,2013-05-02 13:53:00,
2013-05-02 17:02:00,87.1,44.5,28.72,ENE,67,0.0,4.5,23,0.00,,,0.00,open2300-1.11,2013-05-02 14:02:00,
2013-05-02 17:07:00,87.4,45.8,28.72,NNE,22,4.0,4.0,24,0.00,,,0.00,open2300-1.11,2013-05-02 14:07:00,
2013-05-02 17:12:00,87.4,43.7,28.72,NNE,22,11.4,11.4,22,0.00,,,0.00,open2300-1.11,2013-05-02 14:12:00,
2013-05-02 17:22:00,87.6,43.9,28.72,NNE,22,0.0,20.6,22,0.00,,,0.00,open2300-1.11,2013-05-02 14:22:00,
2013-05-02 17:27:00,87.6,43.9,28.72,NNE,22,0.0,0.0,22,0.00,,,0.00,open2300-1.11,2013-05-02 14:27:00,
2013-05-02 17:33:00,88.0,45.2,28.72,NNE,22,0.0,7.2,23,0.00,,,0.00,open2300-1.11,2013-05-02 14:33:00,
2013-05-02 17:42:00,88.2,46.4,28.72,NNE,22,12.8,12.8,24,0.00,,,0.00,open2300-1.11,2013-05-02 14:42:00,
2013-05-02 17:47:00,88.3,44.5,28.72,NE,45,0.0,12.8,22,0.00,,,0.00,open2300-1.11,2013-05-02 14:47:00,
2013-05-02 17:52:00,88.2,44.3,28.72,SSE,157,0.0,0.0,22,0.00,,,0.00,open2300-1.11,2013-05-02 14:52:00,
2013-05-02 17:57:00,88.2,44.3,28.72,NNE,22,2.9,2.9,22,0.00,,,0.00,open2300-1.11,2013-05-02 14:57:00,
2013-05-02 18:02:00,88.2,44.3,28.72,NNE,22,6.5,6.5,22,0.00,,,0.00,open2300-1.11,2013-05-02 15:02:00,
2013-05-02 18:07:00,88.2,45.4,28.71,NE,45,0.0,6.5,23,0.00,,,0.00,open2300-1.11,2013-05-02 15:07:00,
2013-05-02 18:12:00,88.3,44.5,28.71,NNE,22,0.0,2.2,22,0.00,,,0.00,open2300-1.11,2013-05-02 15:12:00,
2013-05-02 18:22:00,88.0,44.2,28.71,NNE,22,2.9,2.9,22,0.00,,,0.00,open2300-1.11,2013-05-02 15:22:00,
2013-05-02 18:27:00,88.0,44.2,28.71,NNE,22,12.3,12.3,22,0.00,,,0.00,open2300-1.11,2013-05-02 15:27:00,
2013-05-02 18:32:00,88.2,45.4,28.71,NNE,22,0.0,12.3,23,0.00,,,0.00,open2300-1.11,2013-05-02 15:32:00,
2013-05-02 18:42:00,88.5,44.6,28.71,NNE,22,0.0,0.0,22,0.00,,,0.00,open2300-1.11,2013-05-02 15:42:00,
2013-05-02 18:47:00,88.5,44.6,28.70,NNE,22,0.0,5.8,22,0.00,,,0.00,open2300-1.11,2013-05-02 15:47:00,
2013-05-02 18:57:00,88.3,44.5,28.71,NNE,22,0.0,0.0,22,0.00,,,0.00,open2300-1.11,2013-05-02 15:57:00,
2013-05-02 19:02:00,88.2,44.3,28.71,NNE,22,0.0,0.0,22,0.00,,,0.00,open2300-1.11,2013-05-02 16:02:00,
2013-05-02 19:12:00,87.8,45.1,28.71,NNE,22,0.0,0.0,23,0.00,,,0.00,open2300-1.11,2013-05-02 16:12:00,
2013-05-02 19:22:00,87.1,44.5,28.71,NNE,22,0.0,0.0,23,0.00,,,0.00,open2300-1.11,2013-05-02 16:22:00,
2013-05-02 19:27:00,86.7,44.1,28.71,NNE,22,0.0,0.0,23,0.00,,,0.00,open2300-1.11,2013-05-02 16:27:00,
2013-05-02 19:32:00,85.6,43.2,28.71,NNE,22,0.0,0.0,23,0.00,,,0.00,open2300-1.11,2013-05-02 16:32:00,
2013-05-02 19:42:00,84.0,44.0,28.70,NNE,22,0.0,0.0,25,0.00,,,0.00,open2300-1.11,2013-05-02 16:42:00,
2013-05-02 19:47:00,83.1,43.2,28.70,NNE,22,2.9,2.9,25,0.00,,,0.00,open2300-1.11,2013-05-02 16:47:00,
2013-05-02 19:52:00,82.6,41.7,28.70,NNE,22,0.0,2.9,24,0.00,,,0.00,open2300-1.11,2013-05-02 16:52:00,
2013-05-02 20:02:00,81.1,42.7,28.70,NNE,22,0.0,0.0,26,0.00,,,0.00,open2300-1.11,2013-05-02 17:02:00,
2013-05-02 20:07:00,81.0,42.5,28.71,NNE,22,0.0,0.0,26,0.00,,,0.00,open2300-1.11,2013-05-02 17:07:00,
2013-05-02 20:12:00,80.6,42.2,28.70,NNE,22,0.0,0.0,26,0.00,,,0.00,open2300-1.11,2013-05-02 17:12:00,
2013-05-02 20:22:00,79.9,41.6,28.70,NNW,337,0.0,0.0,26,0.00,,,0.00,open2300-1.11,2013-05-02 17:22:00,
2013-05-02 20:27:00,79.5,42.3,28.71,NNE,22,0.0,0.0,27,0.00,,,0.00,open2300-1.11,2013-05-02 17:27:00,
2013-05-02 20:32:00,79.2,42.0,28.70,NNE,22,0.0,0.0,27,0.00,,,0.00,open2300-1.11,2013-05-02 17:32:00,
2013-05-02 20:42:00,78.4,41.4,28.71,NNE,22,0.0,0.0,27,0.00,,,0.00,open2300-1.11,2013-05-02 17:42:00,
2013-05-02 20:52:00,78.1,41.1,28.71,NNE,22,0.0,0.0,27,0.00,,,0.00,open2300-1.11,2013-05-02 17:52:00,
2013-05-02 20:57:00,78.1,41.1,28.71,NNE,22,0.0,0.0,27,0.00,,,0.00,open2300-1.11,2013-05-02 17:57:00,
2013-05-02 21:02:00,77.5,40.6,28.72,NE,45,0.0,0.0,27,0.00,,,0.00,open2300-1.11,2013-05-02 18:02:00,
2013-05-02 21:07:00,77.5,40.6,28.72,NNE,22,0.0,0.0,27,0.00,,,0.00,open2300-1.11,2013-05-02 18:07:00,
2013-05-02 21:17:00,77.2,40.3,28.72,NNE,22,0.0,0.0,27,0.00,,,0.00,open2300-1.11,2013-05-02 18:17:00,
2013-05-02 21:22:00,76.8,40.0,28.72,NNE,22,0.0,0.0,27,0.00,,,0.00,open2300-1.11,2013-05-02 18:22:00,
2013-05-02 21:27:00,76.8,40.0,28.72,NNE,22,0.0,0.0,27,0.00,,,0.00,open2300-1.11,2013-05-02 18:27:00,
2013-05-02 21:32:00,76.6,39.9,28.72,NNE,22,0.0,0.0,27,0.00,,,0.00,open2300-1.11,2013-05-02 18:32:00,
2013-05-02 21:37:00,76.6,39.9,28.72,NNE,22,0.0,0.0,27,0.00,,,0.00,open2300-1.11,2013-05-02 18:37:00,
2013-05-02 21:42:00,76.3,39.6,28.72,NNE,22,0.0,0.0,27,0.00,,,0.00,open2300-1.11,2013-05-02 18:42:00,
2013-05-02 21:52:00,75.9,39.2,28.72,NNE,22,0.0,0.0,27,0.00,,,0.00,open2300-1.11,2013-05-02 18:52:00,
2013-05-02 21:57:00,75.7,39.1,28.72,North,0,0.0,0.0,27,0.00,,,0.00,open2300-1.11,2013-05-02 18:57:00,
2013-05-02 22:02:00,75.6,40.0,28.72,NNE,22,2.2,2.2,28,0.00,,,0.00,open2300-1.11,2013-05-02 19:02:00,
2013-05-02 22:07:00,75.4,39.8,28.72,NE,45,0.0,2.2,28,0.00,,,0.00,open2300-1.11,2013-05-02 19:07:00,
2013-05-02 22:17:00,75.0,40.5,28.72,NNE,22,0.0,0.0,29,0.00,,,0.00,open2300-1.11,2013-05-02 19:17:00,
2013-05-02 22:27:00,74.8,41.4,28.72,NNE,22,0.0,0.0,30,0.00,,,0.00,open2300-1.11,2013-05-02 19:27:00,
2013-05-02 22:32:00,74.8,42.2,28.72,NNE,22,0.0,0.0,31,0.00,,,0.00,open2300-1.11,2013-05-02 19:32:00,
2013-05-02 22:42:00,74.8,42.9,28.72,NNE,22,0.0,0.0,32,0.00,,,0.00,open2300-1.11,2013-05-02 19:42:00,
2013-05-02 22:47:00,74.8,43.7,28.72,NNE,22,0.0,0.0,33,0.00,,,0.00,open2300-1.11,2013-05-02 19:47:00,
2013-05-02 22:57:00,74.5,43.3,28.72,NNE,22,0.0,0.0,33,0.00,,,0.00,open2300-1.11,2013-05-02 19:57:00,
2013-05-02 23:03:00,74.3,43.9,28.72,NNE,22,0.0,0.0,34,0.00,,,0.00,open2300-1.11,2013-05-02 20:03:00,
2013-05-02 23:12:00,74.3,44.7,28.72,NNE,22,0.0,0.0,35,0.00,,,0.00,open2300-1.11,2013-05-02 20:12:00,
2013-05-02 23:17:00,74.1,46.0,28.72,NE,45,0.0,0.0,37,0.00,,,0.00,open2300-1.11,2013-05-02 20:17:00,
2013-05-02 23:27:00,73.9,46.6,28.72,NNE,22,0.0,0.0,38,0.00,,,0.00,open2300-1.11,2013-05-02 20:27:00,
2013-05-02 23:32:00,73.9,46.6,28.72,NNE,22,0.0,0.0,38,0.00,,,0.00,open2300-1.11,2013-05-02 20:32:00,
2013-05-02 23:42:00,73.6,46.3,28.72,NNE,22,0.0,0.0,38,0.00,,,0.00,open2300-1.11,2013-05-02 20:42:00,
2013-05-02 23:47:00,73.6,46.3,28.71,NNE,22,0.0,0.0,38,0.00,,,0.00,open2300-1.11,2013-05-02 20:47:00,
2013-05-02 23:57:00,73.2,46.0,28.72,NNE,22,0.0,0.0,38,0.00,,,0.00,open2300-1.11,2013-05-02 20:57:00,